Location: Unspecified
(0.0000°N, 0.0000°E)
Time: 23:22:20
(UTC+00:00)

CORVUS BC2 - Pass Details

Date: 20 February 2026
Orbit: 540 x 560 km, 97.4° (Epoch: 7 March)

Event Time Altitude Azimuth Distance (km) Brightness Sun altitude
Rises 04:14:02 0° 164° (SSE) 2,747 ? -29.3°
Reaches altitude 10° 04:16:12 10° 161° (SSE) 1,848 ? -28.8°
Enters shadow 04:18:10 28° 154° (SSE) 1,072 ? -28.3°
